Gillette, WY

1:40 PM MST on November 22, 2017 (GMT -0700)
Gillette-Campbell County

Weather History for KGCC - November, 2012

Change the Weather History Date:

Monday, November 5, 2012

  Actual Average Record
Temperature  
Mean Temperature 50 °F 38 °F  
Max Temperature 65 °F 51 °F 72 °F (1975)
Min Temperature 34 °F 25 °F -4 °F (2003)
Degree Days  
Heating Degree Days 15 27  
Month to date heating degree days 90 132  
Since 1 July heating degree days 887 1041  
Cooling Degree Days 0 0  
Month to date cooling degree days 0 0  
Year to date cooling degree days 795 502  
Growing Degree Days 2 (Base 50)    
Moisture  
Dew Point 35 °F    
Average Humidity 62    
Maximum Humidity 92    
Minimum Humidity 31    
Precipitation  
Precipitation 0.00 in 0.02 in 0.24 in (1927)
Month to date precipitation T 0.12  
Year to date precipitation 8.47 13.06  
Sea Level Pressure  
Sea Level Pressure 30.09 in    
Wind  
Wind Speed 11 mph (West)    
Max Wind Speed 24 mph    
Max Gust Speed 29 mph    
Visibility 10 miles    
Events      
T = Trace of Precipitation, MM = Missing Value Source: NWS Daily Summary

Daily Weather History Graph

Daily Weather History Graph

Search for Another Location

Airport or City:

Trip Planner

Search our weather history database for the weather conditions in past years. The results will help you decide how hot, cold, wet, or windy it might be!

Date:

Astronomy

Nov. 05, 2012 Rise Set
Actual Time 6:45 AM MST 4:45 PM MST
Civil Twilight 6:14 AM MST 5:16 PM MST
Nautical Twilight 5:40 AM MST 5:50 PM MST
Astronomical Twilight 5:06 AM MST 6:24 PM MST
Moon 10:26 PM MST (11/5) 12:06 PM MST (11/5)
Length of Visible Light 11h 01m
Length of Day
10h 00m
Waning Gibbous, 62% of the Moon is Illuminated
Nov 5
Waning Gibbous
Nov 6
Last Quarter
Nov 13
New
Nov 20
First Quarter
Nov 28
Full

Hourly Weather History & Observations

Time (MST) Temp. Windchill Dew Point Humidity Pressure Visibility Wind Dir Wind Speed Gust Speed Precip Events Conditions
12:53 AM 42.1 °F 39.2 °F 36.0 °F 79% 30.24 in 10.0 mi WSW 4.6 mph - N/A   Overcast
1:53 AM 42.1 °F 40.2 °F 36.0 °F 79% 30.23 in 10.0 mi WSW 3.5 mph - N/A   Overcast
2:53 AM 44.1 °F 38.1 °F 36.0 °F 73% 30.19 in 10.0 mi WSW 11.5 mph - N/A   Overcast
3:53 AM 43.0 °F 35.7 °F 35.1 °F 74% 30.17 in 10.0 mi SW 15.0 mph - N/A   Partly Cloudy
4:53 AM 44.1 °F 36.5 °F 35.1 °F 71% 30.16 in 10.0 mi SW 17.3 mph - N/A   Clear
5:53 AM 45.0 °F 38.5 °F 35.1 °F 68% 30.14 in 10.0 mi SW 13.8 mph - N/A   Clear
6:53 AM 44.1 °F 37.7 °F 33.1 °F 65% 30.14 in 10.0 mi SW 12.7 mph - N/A   Clear
7:53 AM 46.9 °F - 34.0 °F 61% 30.14 in 10.0 mi SW 13.8 mph - N/A   Clear
8:53 AM 48.9 °F - 34.0 °F 56% 30.11 in 10.0 mi SW 15.0 mph - N/A   Clear
9:53 AM 54.0 °F - 34.0 °F 47% 30.07 in 10.0 mi SW 11.5 mph - N/A   Clear
10:53 AM 57.0 °F - 35.1 °F 44% 30.06 in 10.0 mi SW 12.7 mph - N/A   Clear
11:53 AM 61.0 °F - 34.0 °F 36% 30.01 in 10.0 mi SW 13.8 mph - N/A   Clear
12:53 PM 63.0 °F - 34.0 °F 34% 29.98 in 10.0 mi WSW 10.4 mph - N/A   Clear
1:53 PM 64.0 °F - 33.1 °F 31% 29.97 in 10.0 mi NW 9.2 mph 18.4 mph N/A   Clear
2:53 PM 64.0 °F - 34.0 °F 33% 29.96 in 10.0 mi NW 12.7 mph - N/A   Clear
3:53 PM 61.0 °F - 34.0 °F 36% 29.97 in 10.0 mi WNW 9.2 mph - N/A   Clear
4:53 PM 57.0 °F - 33.1 °F 40% 29.99 in 10.0 mi NW 9.2 mph - N/A   Clear
5:53 PM 57.9 °F - 32.0 °F 37% 30.00 in 10.0 mi NW 16.1 mph - N/A   Clear
6:53 PM 51.1 °F - 32.0 °F 48% 30.04 in 10.0 mi WNW 9.2 mph - N/A   Clear
7:53 PM 51.1 °F - 33.1 °F 50% 30.03 in 10.0 mi West 10.4 mph - N/A   Mostly Cloudy
8:50 PM 51.8 °F - 37.4 °F 58% 30.11 in 10.0 mi NNE 23.0 mph 28.8 mph N/A   Mostly Cloudy
8:53 PM 51.1 °F - 39.0 °F 63% 30.08 in 10.0 mi North 18.4 mph - N/A   Mostly Cloudy
9:00 PM 50.0 °F - 37.4 °F 62% 30.11 in 10.0 mi North 15.0 mph - N/A   Mostly Cloudy
9:53 PM 42.1 °F 38.4 °F 37.0 °F 82% 30.11 in 10.0 mi North 5.8 mph - N/A   Partly Cloudy
10:53 PM 39.9 °F - 37.0 °F 89% 30.12 in 10.0 mi Calm Calm - N/A   Mostly Cloudy
11:53 PM 37.0 °F 34.5 °F 34.0 °F 89% 30.14 in 10.0 mi WSW 3.5 mph - N/A   Partly Cloudy